Location: Groß Eilstorf
(52.8200°N, 9.4552°E)
Time: 07:53:38
(UTC+00:00)

USA 245 - Pass Details

Date: 15 May 2026
Orbit: 264 x 994 km, 97.9° (Epoch: 15 October)

Event Time Altitude Azimuth Distance (km) Brightness Sun altitude
Exits shadow 20:25:40 - 163° (SSE) 2,713 6.3 -9.0°
Reaches altitude 10° 20:26:02 10° 163° (SSE) 2,572 6.1 -9.0°
Maximum altitude 20:31:55 88° 78° (ENE) 874 4.3 -9.6°
Drops below altitude 10° 20:37:21 10° 346° (NNW) 2,385 7.7 -10.1°
Sets 20:39:33 0° 346° (NNW) 3,242 8.6 -10.3°
